• In Austria
  • List of Countries
  • For 7 days
  • Water Temperature
  • Satellite Maps
  • Weather Map
  • News
  • Weather Widgets
  • user-avatar
    Login

    Hourly Weather Plovdiv

    Today, 12 December, Tuesday

    Time Temperature Precipitation Wind Pressure Humidity
    00:00 +6°C° 0 mm 2 mps 740 mmHg 57%
    01:00 +6°C° 0 mm 2 mps 740 mmHg 58%
    02:00 +6°C° 0 mm 2 mps 740 mmHg 62%
    03:00 +6°C° 0 mm 2 mps 740 mmHg 62%
    04:00 +6°C° 0 mm 2 mps 740 mmHg 63%
    05:00 +6°C° 0 mm 2 mps 740 mmHg 63%
    06:00 +6°C° 0 mm 2 mps 740 mmHg 64%
    07:00 +7°C° 0 mm 2 mps 740 mmHg 65%
    08:00 +8°C° 0 mm 2 mps 740 mmHg 63%
    09:00 +10°C° 0 mm 2 mps 740 mmHg 60%
    10:00 +13°C° 0 mm 1 mps 740 mmHg 57%
    11:00 +15°C° 0 mm 1 mps 740 mmHg 54%
    12:00 +15°C° 0 mm 1 mps 740 mmHg 54%
    13:00 +16°C° 0 mm 1 mps 740 mmHg 53%
    14:00 +18°C° 0 mm 1 mps 740 mmHg 54%
    15:00 +15°C° 0 mm 1 mps 740 mmHg 60%
    16:00 +13°C° 0 mm 1 mps 740 mmHg 67%
    17:00 +12°C° 0 mm 1 mps 740 mmHg 73%
    18:00 +10°C° 0 mm 2 mps 740 mmHg 74%
    19:00 +10°C° 0 mm 2 mps 740 mmHg 75%
    20:00 +9°C° 0 mm 2 mps 740 mmHg 75%
    21:00 +9°C° 0 mm 2 mps 740 mmHg 75%
    22:00 +9°C° 0 mm 2 mps 740 mmHg 75%
    23:00 +9°C° 0 mm 2 mps 740 mmHg 75%

    Tomorrow, 13 December, Wednesday

    Time Temperature Precipitation Wind Pressure Humidity
    00:00 +9°C° 0 mm 2 mps 740 mmHg 75%
    01:00 +9°C° 0 mm 2 mps 740 mmHg 75%
    02:00 +9°C° 0 mm 2 mps 740 mmHg 75%
    03:00 +9°C° 0 mm 2 mps 740 mmHg 75%
    04:00 +9°C° 0 mm 2 mps 740 mmHg 76%
    05:00 +9°C° 0 mm 2 mps 740 mmHg 76%
    06:00 +8°C° 0 mm 2 mps 740 mmHg 76%
    07:00 +8°C° 0 mm 2 mps 740 mmHg 75%
    08:00 +8°C° 0 mm 2 mps 740 mmHg 75%
    09:00 +11°C° 0 mm 1 mps 740 mmHg 69%
    10:00 +14°C° 0 mm 1 mps 740 mmHg 63%
    11:00 +15°C° 0 mm 0 mps 741 mmHg 57%
    12:00 +16°C° 0 mm 1 mps 740 mmHg 55%
    13:00 +18°C° 0 mm 1 mps 740 mmHg 54%
    14:00 +18°C° 0 mm 1 mps 739 mmHg 53%
    15:00 +16°C° 0 mm 1 mps 739 mmHg 59%
    16:00 +14°C° 0 mm 1 mps 739 mmHg 66%
    17:00 +12°C° 0 mm 1 mps 738 mmHg 72%
    18:00 +12°C° 0 mm 1 mps 738 mmHg 71%
    19:00 +12°C° 0 mm 1 mps 738 mmHg 71%
    20:00 +12°C° 0 mm 1 mps 738 mmHg 70%
    21:00 +12°C° 0 mm 1 mps 738 mmHg 68%
    22:00 +11°C° 0 mm 1 mps 737 mmHg 67%
    23:00 +11°C° 0 mm 1 mps 737 mmHg 66%

    Day after tomorrow, 14 December, Thursday

    Time Temperature Precipitation Wind Pressure Humidity
    00:00 +11°C° 0 mm 1 mps 737 mmHg 67%
    01:00 +11°C° 0 mm 1 mps 737 mmHg 67%
    02:00 +11°C° 0 mm 1 mps 736 mmHg 68%
    03:00 +11°C° 0 mm 1 mps 736 mmHg 69%
    04:00 +10°C° 0 mm 2 mps 736 mmHg 70%
    05:00 +10°C° 0 mm 2 mps 735 mmHg 72%
    06:00 +9°C° 0 mm 2 mps 735 mmHg 74%
    07:00 +9°C° 0 mm 2 mps 736 mmHg 76%
    08:00 +9°C° 0 mm 1 mps 736 mmHg 78%
    09:00 +11°C° 0 mm 1 mps 736 mmHg 72%
    10:00 +13°C° 0 mm 1 mps 736 mmHg 66%
    11:00 +15°C° 0 mm 1 mps 736 mmHg 61%
    12:00 +15°C° 0 mm 1 mps 736 mmHg 59%
    13:00 +15°C° 0 mm 1 mps 735 mmHg 57%
    14:00 +16°C° 0 mm 2 mps 735 mmHg 55%
    15:00 +14°C° 0 mm 1 mps 735 mmHg 61%
    16:00 +13°C° 0 mm 1 mps 735 mmHg 67%
    17:00 +12°C° 0 mm 1 mps 735 mmHg 72%
    18:00 +11°C° 0 mm 1 mps 736 mmHg 74%
    19:00 +10°C° 0 mm 1 mps 736 mmHg 76%
    20:00 +10°C° 0 mm 1 mps 736 mmHg 78%
    21:00 +10°C° 0 mm 1 mps 737 mmHg 78%
    22:00 +9°C° 0 mm 1 mps 737 mmHg 77%
    23:00 +9°C° 0 mm 1 mps 737 mmHg 77%

    15 December, Friday

    Time Temperature Precipitation Wind Pressure Humidity
    00:00 +9°C° 0 mm 1 mps 737 mmHg 77%
    01:00 +9°C° 0 mm 1 mps 737 mmHg 76%
    02:00 +9°C° 0 mm 1 mps 737 mmHg 75%
    03:00 +8°C° 0 mm 1 mps 737 mmHg 75%
    04:00 +8°C° 0 mm 1 mps 736 mmHg 74%
    05:00 +8°C° 0 mm 1 mps 736 mmHg 73%
    06:00 +8°C° 0 mm 1 mps 736 mmHg 72%
    07:00 +8°C° 0 mm 1 mps 736 mmHg 72%
    08:00 +8°C° 0 mm 1 mps 737 mmHg 71%
    09:00 +10°C° 0 mm 1 mps 736 mmHg 66%
    10:00 +12°C° 0 mm 1 mps 736 mmHg 60%
    11:00 +14°C° 0 mm 1 mps 736 mmHg 55%
    12:00 +14°C° 0 mm 2 mps 736 mmHg 54%
    13:00 +15°C° 0 mm 2 mps 735 mmHg 53%
    14:00 +15°C° 0 mm 2 mps 734 mmHg 51%
    15:00 +14°C° 0 mm 2 mps 734 mmHg 57%
    16:00 +12°C° 0 mm 2 mps 734 mmHg 64%
    17:00 +10°C° 0 mm 2 mps 734 mmHg 70%
    18:00 +10°C° 0 mm 2 mps 734 mmHg 70%
    19:00 +9°C° 0 mm 2 mps 734 mmHg 69%
    20:00 +9°C° 0 mm 2 mps 734 mmHg 69%
    21:00 +9°C° 0 mm 2 mps 734 mmHg 69%
    22:00 +9°C° 0 mm 2 mps 734 mmHg 70%
    23:00 +9°C° 0 mm 2 mps 734 mmHg 70%

    16 December, Saturday

    Time Temperature Precipitation Wind Pressure Humidity
    00:00 +9°C° 0 mm 2 mps 733 mmHg 71%
    01:00 +9°C° 0 mm 2 mps 733 mmHg 72%
    02:00 +9°C° 0 mm 2 mps 733 mmHg 74%
    03:00 +9°C° 0 mm 2 mps 733 mmHg 74%
    04:00 +9°C° 0 mm 2 mps 733 mmHg 75%
    05:00 +9°C° 0 mm 2 mps 733 mmHg 76%
    06:00 +9°C° 0 mm 2 mps 733 mmHg 76%
    07:00 +9°C° 0 mm 2 mps 733 mmHg 77%
    08:00 +9°C° 0 mm 2 mps 733 mmHg 78%
    09:00 +10°C° 0 mm 2 mps 733 mmHg 74%
    10:00 +12°C° 0 mm 2 mps 734 mmHg 70%
    11:00 +14°C° 0 mm 2 mps 734 mmHg 66%
    12:00 +14°C° 0 mm 2 mps 734 mmHg 64%
    13:00 +15°C° 0 mm 2 mps 734 mmHg 62%
    14:00 +16°C° 0 mm 2 mps 733 mmHg 59%
    15:00 +15°C° 0 mm 2 mps 734 mmHg 66%
    16:00 +13°C° 0 mm 2 mps 734 mmHg 72%
    17:00 +12°C° 0 mm 2 mps 734 mmHg 78%
    18:00 +12°C° 0.1 mm 2 mps 734 mmHg 80%
    19:00 +10°C° 0.1 mm 2 mps 734 mmHg 81%
    20:00 +11°C° 0.1 mm 1 mps 734 mmHg 83%
    21:00 +11°C° 0.4 mm 1 mps 734 mmHg 84%
    22:00 +11°C° 0.4 mm 1 mps 734 mmHg 86%
    23:00 +11°C° 0.4 mm 1 mps 734 mmHg 87%

    17 December, Sunday

    Time Temperature Precipitation Wind Pressure Humidity
    00:00 +11°C° 0.6 mm 1 mps 734 mmHg 88%
    01:00 +10°C° 0.6 mm 1 mps 733 mmHg 89%
    02:00 +10°C° 0.6 mm 1 mps 733 mmHg 91%
    03:00 +10°C° 0.5 mm 1 mps 733 mmHg 91%
    04:00 +10°C° 0.5 mm 1 mps 733 mmHg 91%
    05:00 +10°C° 0.5 mm 1 mps 732 mmHg 92%
    06:00 +9°C° 1.2 mm 2 mps 733 mmHg 91%
    07:00 +8°C° 1.2 mm 2 mps 733 mmHg 91%
    08:00 +8°C° 1.2 mm 2 mps 733 mmHg 91%
    09:00 +8°C° 1 mm 2 mps 734 mmHg 89%
    10:00 +8°C° 1 mm 2 mps 734 mmHg 88%
    11:00 +8°C° 1 mm 2 mps 735 mmHg 87%
    12:00 +8°C° 0.4 mm 2 mps 735 mmHg 85%
    13:00 +8°C° 0.4 mm 2 mps 735 mmHg 84%
    14:00 +8°C° 0.4 mm 2 mps 735 mmHg 82%
    15:00 +8°C° 0.6 mm 2 mps 735 mmHg 83%
    16:00 +7°C° 0.6 mm 2 mps 736 mmHg 84%
    17:00 +7°C° 0.6 mm 2 mps 736 mmHg 86%
    18:00 +6°C° 1 mm 2 mps 737 mmHg 87%
    19:00 +6°C° 1 mm 2 mps 737 mmHg 88%
    20:00 +7°C° 1 mm 1 mps 738 mmHg 89%
    21:00 +7°C° 0.8 mm 1 mps 738 mmHg 90%
    22:00 +6°C° 0.8 mm 1 mps 739 mmHg 90%
    23:00 +6°C° 0.8 mm 1 mps 739 mmHg 90%
    Show more